Location: Borea
(45.6167°N, 23.0167°E)
Time: 02:44:38
(UTC+00:00)

OPS 8068 - Pass Details

Date: 22 February 2024
Orbit: 631 x 963 km, 98.3° (Epoch: 13 April)

Event Time Altitude Azimuth Distance (km) Brightness Sun altitude
Rises 01:33:47 0° 111° (ESE) 2,921 ? -39.2°
Reaches altitude 10° 01:37:09 10° 82° (E) 2,037 ? -38.7°
Maximum altitude 01:39:00 13° 57° (ENE) 1,889 ? -38.4°
Drops below altitude 10° 01:40:53 10° 32° (NNE) 2,081 ? -38.1°
Sets 01:44:24 0° 4° (N) 3,054 ? -37.6°
